Time,TemperatureF,DewpointF,PressureIn,WindDirection,WindDirectionDegrees,WindSpeedMPH,WindSpeedGustMPH,Humidity,HourlyPrecipIn,Conditions,Clouds,dailyrainin,SoftwareType,DateUTC
2013-02-09 00:03:00,28.9,23.2,30.39,NNE,16,3.0,3.0,79,0.00,,,0.10,Wunderground v.1.15,2013-02-09 05:03:00,
2013-02-09 00:13:00,28.9,22.9,30.39,NNE,14,3.0,3.0,78,0.00,,,0.00,Wunderground v.1.15,2013-02-09 05:13:00,
2013-02-09 00:23:00,28.8,22.8,30.39,North,11,3.0,3.0,78,0.00,,,0.00,Wunderground v.1.15,2013-02-09 05:23:00,
2013-02-09 00:33:00,28.7,22.4,30.40,NNE,24,3.0,3.0,77,0.00,,,0.00,Wunderground v.1.15,2013-02-09 05:33:00,
2013-02-09 00:43:00,28.7,22.7,30.40,NNW,345,4.0,4.0,78,0.00,,,0.00,Wunderground v.1.15,2013-02-09 05:43:00,
2013-02-09 00:53:00,28.6,22.6,30.40,North,355,2.0,2.0,78,0.00,,,0.00,Wunderground v.1.15,2013-02-09 05:53:00,
2013-02-09 01:03:00,28.5,22.5,30.40,North,355,3.0,3.0,78,0.00,,,0.00,Wunderground v.1.15,2013-02-09 06:03:00,
2013-02-09 01:13:00,28.5,22.2,30.40,NNE,20,3.0,3.0,77,0.00,,,0.00,Wunderground v.1.15,2013-02-09 06:13:00,
2013-02-09 01:23:00,28.4,22.4,30.40,NNE,14,2.0,4.0,78,0.00,,,0.00,Wunderground v.1.15,2013-02-09 06:23:00,
2013-02-09 01:33:00,28.3,22.3,30.40,NNE,17,2.0,2.0,78,0.00,,,0.00,Wunderground v.1.15,2013-02-09 06:33:00,
2013-02-09 01:43:00,28.3,22.3,30.39,North,5,2.0,2.0,78,0.00,,,0.00,Wunderground v.1.15,2013-02-09 06:43:00,
2013-02-09 01:53:00,28.3,22.3,30.40,North,355,2.0,2.0,78,0.00,,,0.00,Wunderground v.1.15,2013-02-09 06:53:00,
2013-02-09 02:03:00,28.1,22.4,30.40,North,355,0.0,0.0,79,0.00,,,0.00,Wunderground v.1.15,2013-02-09 07:03:00,
2013-02-09 02:13:00,27.9,22.2,30.41,North,355,0.0,0.0,79,0.00,,,0.00,Wunderground v.1.15,2013-02-09 07:13:00,
2013-02-09 02:23:00,27.8,22.7,30.42,North,355,0.0,0.0,81,0.00,,,0.00,Wunderground v.1.15,2013-02-09 07:23:00,
2013-02-09 02:33:00,27.5,22.4,30.42,North,355,0.0,0.0,81,0.00,,,0.00,Wunderground v.1.15,2013-02-09 07:33:00,
2013-02-09 02:43:00,27.4,22.6,30.42,North,355,0.0,0.0,82,0.00,,,0.00,Wunderground v.1.15,2013-02-09 07:43:00,
2013-02-09 02:53:00,27.5,22.1,30.42,North,355,1.0,1.0,80,0.00,,,0.00,Wunderground v.1.15,2013-02-09 07:53:00,
2013-02-09 03:03:00,27.7,22.3,30.42,North,355,0.0,0.0,80,0.00,,,0.00,Wunderground v.1.15,2013-02-09 08:03:00,
2013-02-09 03:13:00,27.7,22.3,30.43,North,355,0.0,0.0,80,0.00,,,0.00,Wunderground v.1.15,2013-02-09 08:13:00,
2013-02-09 03:23:00,27.6,22.2,30.42,North,355,0.0,0.0,80,0.00,,,0.00,Wunderground v.1.15,2013-02-09 08:23:00,
2013-02-09 03:33:00,27.4,22.3,30.42,North,355,0.0,0.0,81,0.00,,,0.00,Wunderground v.1.15,2013-02-09 08:33:00,
2013-02-09 03:43:00,27.0,22.2,30.43,North,355,0.0,0.0,82,0.00,,,0.00,Wunderground v.1.15,2013-02-09 08:43:00,
2013-02-09 03:53:00,26.7,22.2,30.42,North,355,0.0,0.0,83,0.00,,,0.00,Wunderground v.1.15,2013-02-09 08:53:00,
2013-02-09 04:03:00,26.5,22.0,30.42,North,355,0.0,0.0,83,0.00,,,0.00,Wunderground v.1.15,2013-02-09 09:03:00,
2013-02-09 04:13:00,26.4,21.9,30.42,North,355,0.0,0.0,83,0.00,,,0.00,Wunderground v.1.15,2013-02-09 09:13:00,
2013-02-09 04:23:00,26.5,22.0,30.41,ENE,62,1.0,3.0,83,0.00,,,0.00,Wunderground v.1.15,2013-02-09 09:23:00,
2013-02-09 04:33:00,26.3,21.8,30.41,East,88,4.0,4.0,83,0.00,,,0.00,Wunderground v.1.15,2013-02-09 09:33:00,
2013-02-09 04:43:00,26.0,21.5,30.41,East,87,3.0,3.0,83,0.00,,,0.00,Wunderground v.1.15,2013-02-09 09:43:00,
2013-02-09 04:53:00,25.6,21.2,30.41,East,90,2.0,2.0,83,0.00,,,0.00,Wunderground v.1.15,2013-02-09 09:53:00,
2013-02-09 05:03:00,25.2,20.8,30.42,East,90,1.0,1.0,83,0.00,,,0.00,Wunderground v.1.15,2013-02-09 10:03:00,
2013-02-09 05:13:00,24.8,20.4,30.42,East,90,0.0,0.0,83,0.00,,,0.00,Wunderground v.1.15,2013-02-09 10:13:00,
2013-02-09 05:23:00,24.4,20.3,30.42,East,90,0.0,0.0,84,0.00,,,0.00,Wunderground v.1.15,2013-02-09 10:23:00,
2013-02-09 05:33:00,23.9,20.0,30.44,East,90,0.0,0.0,85,0.00,,,0.00,Wunderground v.1.15,2013-02-09 10:33:00,
2013-02-09 05:43:00,23.5,19.7,30.43,East,90,0.0,2.0,85,0.00,,,0.00,Wunderground v.1.15,2013-02-09 10:43:00,
2013-02-09 05:53:00,23.8,19.7,30.43,East,90,2.0,2.0,84,0.00,,,0.00,Wunderground v.1.15,2013-02-09 10:53:00,
2013-02-09 06:03:00,23.9,19.5,30.43,East,90,1.0,1.0,83,0.00,,,0.00,Wunderground v.1.15,2013-02-09 11:03:00,
2013-02-09 06:08:00,23.9,19.5,30.44,East,90,1.0,1.0,83,0.00,,,0.00,Wunderground v.1.15,2013-02-09 11:08:00,
2013-02-09 06:23:00,23.2,18.8,30.44,East,90,0.0,0.0,83,0.00,,,0.00,Wunderground v.1.15,2013-02-09 11:23:00,
2013-02-09 06:33:00,22.7,18.9,30.45,East,90,0.0,0.0,85,0.00,,,0.00,Wunderground v.1.15,2013-02-09 11:33:00,
2013-02-09 06:43:00,22.6,19.0,30.45,East,90,0.0,0.0,86,0.00,,,0.00,Wunderground v.1.15,2013-02-09 11:43:00,
2013-02-09 06:53:00,22.6,19.0,30.45,East,90,0.0,0.0,86,0.00,,,0.00,Wunderground v.1.15,2013-02-09 11:53:00,
2013-02-09 07:03:00,22.2,18.4,30.46,East,90,0.0,0.0,85,0.00,,,0.00,Wunderground v.1.15,2013-02-09 12:03:00,
2013-02-09 07:13:00,21.8,18.3,30.46,East,90,0.0,0.0,86,0.00,,,0.00,Wunderground v.1.15,2013-02-09 12:13:00,
2013-02-09 07:23:00,21.6,18.1,30.46,East,90,0.0,0.0,86,0.00,,,0.00,Wunderground v.1.15,2013-02-09 12:23:00,
2013-02-09 07:33:00,21.6,18.3,30.46,East,90,0.0,0.0,87,0.00,,,0.00,Wunderground v.1.15,2013-02-09 12:33:00,
2013-02-09 07:43:00,21.7,18.4,30.46,East,90,0.0,2.0,87,0.00,,,0.00,Wunderground v.1.15,2013-02-09 12:43:00,
2013-02-09 07:53:00,22.7,19.1,30.46,East,92,2.0,2.0,86,0.00,,,0.00,Wunderground v.1.15,2013-02-09 12:53:00,
2013-02-09 08:03:00,23.5,19.4,30.47,East,92,2.0,3.0,84,0.00,,,0.00,Wunderground v.1.15,2013-02-09 13:03:00,
2013-02-09 08:13:00,24.0,19.6,30.47,East,92,3.0,3.0,83,0.00,,,0.00,Wunderground v.1.15,2013-02-09 13:13:00,
2013-02-09 08:23:00,24.3,19.9,30.47,East,100,5.0,5.0,83,0.00,,,0.00,Wunderground v.1.15,2013-02-09 13:23:00,
2013-02-09 08:33:00,24.7,20.0,30.47,East,97,6.0,7.0,82,0.00,,,0.00,Wunderground v.1.15,2013-02-09 13:33:00,
2013-02-09 08:43:00,25.0,20.3,30.48,East,101,6.0,6.0,82,0.00,,,0.00,Wunderground v.1.15,2013-02-09 13:43:00,
2013-02-09 08:53:00,25.3,20.0,30.48,East,93,7.0,7.0,80,0.00,,,0.00,Wunderground v.1.15,2013-02-09 13:53:00,
2013-02-09 09:03:00,25.6,20.0,30.48,ESE,111,6.0,8.0,79,0.00,,,0.00,Wunderground v.1.15,2013-02-09 14:03:00,
2013-02-09 09:13:00,26.2,20.6,30.49,ESE,116,5.0,5.0,79,0.00,,,0.00,Wunderground v.1.15,2013-02-09 14:13:00,
2013-02-09 09:23:00,26.6,20.1,30.49,ESE,109,6.0,8.0,76,0.00,,,0.00,Wunderground v.1.15,2013-02-09 14:23:00,
2013-02-09 09:33:00,26.9,20.3,30.49,SE,130,6.0,6.0,76,0.00,,,0.00,Wunderground v.1.15,2013-02-09 14:33:00,
2013-02-09 09:43:00,27.3,20.7,30.48,SE,124,6.0,6.0,76,0.00,,,0.00,Wunderground v.1.15,2013-02-09 14:43:00,
2013-02-09 09:53:00,27.7,20.8,30.49,SE,133,5.0,7.0,75,0.00,,,0.00,Wunderground v.1.15,2013-02-09 14:53:00,
2013-02-09 10:03:00,27.9,21.0,30.49,East,96,5.0,5.0,75,0.00,,,0.00,Wunderground v.1.15,2013-02-09 15:03:00,
2013-02-09 10:13:00,28.3,21.4,30.48,SSE,159,6.0,6.0,75,0.00,,,0.00,Wunderground v.1.15,2013-02-09 15:13:00,
2013-02-09 10:23:00,28.6,21.7,30.47,ESE,103,6.0,7.0,75,0.00,,,0.00,Wunderground v.1.15,2013-02-09 15:23:00,
2013-02-09 10:33:00,28.8,20.9,30.47,East,90,7.0,7.0,72,0.00,,,0.00,Wunderground v.1.15,2013-02-09 15:33:00,
2013-02-09 10:43:00,29.4,21.5,30.47,East,81,5.0,7.0,72,0.00,,,0.00,Wunderground v.1.15,2013-02-09 15:43:00,
2013-02-09 10:53:00,29.2,21.0,30.47,ESE,111,7.0,7.0,71,0.00,,,0.00,Wunderground v.1.15,2013-02-09 15:53:00,
2013-02-09 11:03:00,29.8,20.9,30.48,ESE,123,5.0,9.0,69,0.00,,,0.00,Wunderground v.1.15,2013-02-09 16:03:00,
2013-02-09 11:13:00,30.1,21.5,30.47,ESE,109,6.0,8.0,70,0.00,,,0.00,Wunderground v.1.15,2013-02-09 16:13:00,
2013-02-09 11:23:00,30.5,21.5,30.47,East,94,6.0,6.0,69,0.00,,,0.00,Wunderground v.1.15,2013-02-09 16:23:00,
2013-02-09 11:43:00,31.6,21.9,30.46,East,92,5.0,6.0,67,0.00,,,0.00,Wunderground v.1.15,2013-02-09 16:43:00,
2013-02-09 11:53:00,32.1,22.7,30.46,ESE,123,4.0,9.0,68,0.00,,,0.00,Wunderground v.1.15,2013-02-09 16:53:00,
2013-02-09 12:03:00,32.5,22.4,30.46,ESE,111,6.0,7.0,66,0.00,,,0.00,Wunderground v.1.15,2013-02-09 17:03:00,
2013-02-09 12:13:00,32.6,22.5,30.45,East,85,4.0,4.0,66,0.00,,,0.00,Wunderground v.1.15,2013-02-09 17:13:00,
2013-02-09 12:23:00,33.3,23.2,30.45,ESE,112,3.0,4.0,66,0.00,,,0.00,Wunderground v.1.15,2013-02-09 17:23:00,
2013-02-09 12:33:00,33.3,23.2,30.45,East,94,4.0,5.0,66,0.00,,,0.00,Wunderground v.1.15,2013-02-09 17:33:00,
2013-02-09 12:43:00,33.7,22.8,30.45,SSE,165,5.0,5.0,64,0.00,,,0.00,Wunderground v.1.15,2013-02-09 17:43:00,
2013-02-09 12:53:00,33.9,23.4,30.44,East,95,4.0,5.0,65,0.00,,,0.00,Wunderground v.1.15,2013-02-09 17:53:00,
2013-02-09 13:03:00,34.2,22.9,30.44,South,189,3.0,4.0,63,0.00,,,0.00,Wunderground v.1.15,2013-02-09 18:03:00,
2013-02-09 13:13:00,35.1,24.1,30.44,SE,132,2.0,5.0,64,0.00,,,0.00,Wunderground v.1.15,2013-02-09 18:13:00,
2013-02-09 13:23:00,35.0,22.5,30.43,East,97,5.0,5.0,60,0.00,,,0.00,Wunderground v.1.15,2013-02-09 18:23:00,
2013-02-09 13:33:00,35.6,24.2,30.43,ESE,114,4.0,5.0,63,0.00,,,0.00,Wunderground v.1.15,2013-02-09 18:33:00,
2013-02-09 13:40:00,35.4,22.9,30.42,East,97,4.0,8.0,60,0.00,,,0.00,Wunderground v.1.15,2013-02-09 18:40:00,
2013-02-09 13:50:00,35.9,23.7,30.42,East,96,6.0,6.0,61,0.00,,,0.00,Wunderground v.1.15,2013-02-09 18:50:00,
2013-02-09 14:00:00,36.5,23.9,30.41,SE,142,4.0,4.0,60,0.00,,,0.00,Wunderground v.1.15,2013-02-09 19:00:00,
2013-02-09 14:05:00,36.6,23.6,30.41,South,178,4.0,7.0,59,0.00,,,0.00,Wunderground v.1.15,2013-02-09 19:05:00,
2013-02-09 14:20:00,37.0,24.0,30.41,ESE,123,3.0,8.0,59,0.00,,,0.00,Wunderground v.1.15,2013-02-09 19:20:00,
2013-02-09 14:30:00,37.3,23.4,30.40,East,83,3.0,6.0,57,0.00,,,0.00,Wunderground v.1.15,2013-02-09 19:30:00,
2013-02-09 14:40:00,37.5,23.2,30.40,East,96,5.0,7.0,56,0.00,,,0.00,Wunderground v.1.15,2013-02-09 19:40:00,
2013-02-09 14:50:00,37.6,22.9,30.39,East,96,4.0,5.0,55,0.00,,,0.00,Wunderground v.1.15,2013-02-09 19:50:00,
2013-02-09 15:00:00,38.0,24.5,30.38,SE,128,3.0,5.0,58,0.00,,,0.00,Wunderground v.1.15,2013-02-09 20:00:00,
2013-02-09 15:10:00,38.2,22.6,30.38,ESE,123,4.0,4.0,53,0.00,,,0.00,Wunderground v.1.15,2013-02-09 20:10:00,
2013-02-09 15:20:00,38.5,22.4,30.38,ESE,107,3.0,8.0,52,0.00,,,0.00,Wunderground v.1.15,2013-02-09 20:20:00,
2013-02-09 15:30:00,38.4,20.9,30.38,ESE,109,7.0,7.0,49,0.00,,,0.00,Wunderground v.1.15,2013-02-09 20:30:00,
2013-02-09 15:40:00,38.7,22.6,30.38,ESE,113,5.0,7.0,52,0.00,,,0.00,Wunderground v.1.15,2013-02-09 20:40:00,
2013-02-09 15:50:00,38.8,22.7,30.38,ESE,110,5.0,8.0,52,0.00,,,0.00,Wunderground v.1.15,2013-02-09 20:50:00,
2013-02-09 16:00:00,39.1,22.9,30.37,ESE,104,6.0,7.0,52,0.00,,,0.00,Wunderground v.1.15,2013-02-09 21:00:00,
2013-02-09 16:10:00,39.2,21.1,30.37,ESE,109,5.0,8.0,48,0.00,,,0.00,Wunderground v.1.15,2013-02-09 21:10:00,
2013-02-09 16:20:00,39.0,21.4,30.37,ESE,108,5.0,7.0,49,0.00,,,0.00,Wunderground v.1.15,2013-02-09 21:20:00,
2013-02-09 16:30:00,38.9,22.3,30.36,ESE,113,6.0,7.0,51,0.00,,,0.00,Wunderground v.1.15,2013-02-09 21:30:00,
2013-02-09 16:40:00,39.1,20.5,30.36,SE,134,6.0,7.0,47,0.00,,,0.00,Wunderground v.1.15,2013-02-09 21:40:00,
2013-02-09 16:45:00,38.5,21.9,30.36,ESE,119,7.0,7.0,51,0.00,,,0.00,Wunderground v.1.15,2013-02-09 21:45:00,
2013-02-09 17:00:00,38.2,20.7,30.35,SE,138,6.0,6.0,49,0.00,,,0.00,Wunderground v.1.15,2013-02-09 22:00:00,
2013-02-09 17:10:00,38.1,20.1,30.35,SE,130,6.0,6.0,48,0.00,,,0.00,Wunderground v.1.15,2013-02-09 22:10:00,
2013-02-09 17:20:00,38.2,22.6,30.35,ESE,118,7.0,7.0,53,0.00,,,0.00,Wunderground v.1.15,2013-02-09 22:20:00,
2013-02-09 17:30:00,38.0,22.4,30.35,ESE,114,7.0,7.0,53,0.00,,,0.00,Wunderground v.1.15,2013-02-09 22:30:00,
2013-02-09 17:40:00,37.6,21.5,30.35,ESE,113,5.0,7.0,52,0.00,,,0.00,Wunderground v.1.15,2013-02-09 22:40:00,
2013-02-09 17:50:00,37.1,21.5,30.35,ESE,117,5.0,5.0,53,0.00,,,0.00,Wunderground v.1.15,2013-02-09 22:50:00,
2013-02-09 18:00:00,36.0,22.2,30.35,ESE,113,4.0,5.0,57,0.00,,,0.00,Wunderground v.1.15,2013-02-09 23:00:00,
2013-02-09 18:10:00,35.7,22.4,30.35,ESE,121,4.0,4.0,58,0.00,,,0.00,Wunderground v.1.15,2013-02-09 23:10:00,
2013-02-09 18:15:00,35.3,22.0,30.35,ESE,119,4.0,4.0,58,0.00,,,0.00,Wunderground v.1.15,2013-02-09 23:15:00,
2013-02-09 18:25:00,34.8,22.7,30.35,ESE,114,4.0,4.0,61,0.00,,,0.00,Wunderground v.1.15,2013-02-09 23:25:00,
2013-02-09 18:40:00,33.9,22.2,30.35,ESE,114,2.0,2.0,62,0.00,,,0.00,Wunderground v.1.15,2013-02-09 23:40:00,
2013-02-09 18:49:00,33.6,21.2,30.35,ESE,114,1.0,1.0,60,0.00,,,0.00,Wunderground v.1.15,2013-02-09 23:49:00,
2013-02-09 18:59:00,33.9,21.5,30.35,ESE,114,1.0,1.0,60,0.00,,,0.00,Wunderground v.1.15,2013-02-09 23:59:00,
2013-02-09 19:10:00,32.9,20.9,30.34,ESE,114,3.0,3.0,61,0.00,,,0.00,Wunderground v.1.15,2013-02-10 00:10:00,
2013-02-09 19:19:00,32.4,21.6,30.34,ESE,114,3.0,3.0,64,0.00,,,0.00,Wunderground v.1.15,2013-02-10 00:19:00,
2013-02-09 19:29:00,32.2,21.7,30.34,ESE,114,3.0,3.0,65,0.00,,,0.00,Wunderground v.1.15,2013-02-10 00:29:00,
2013-02-09 19:39:00,31.9,21.5,30.34,ESE,117,3.0,3.0,65,0.00,,,0.00,Wunderground v.1.15,2013-02-10 00:39:00,
2013-02-09 19:49:00,32.0,21.6,30.34,ESE,120,4.0,4.0,65,0.00,,,0.00,Wunderground v.1.15,2013-02-10 00:49:00,
2013-02-09 19:59:00,32.4,21.6,30.33,ESE,115,4.0,4.0,64,0.00,,,0.00,Wunderground v.1.15,2013-02-10 00:59:00,
2013-02-09 20:09:00,32.0,21.6,30.33,ESE,106,4.0,4.0,65,0.00,,,0.00,Wunderground v.1.15,2013-02-10 01:09:00,
2013-02-09 20:19:00,31.9,21.8,30.32,ESE,102,5.0,5.0,66,0.00,,,0.00,Wunderground v.1.15,2013-02-10 01:19:00,
2013-02-09 20:29:00,32.2,22.1,30.32,ESE,108,6.0,6.0,66,0.00,,,0.00,Wunderground v.1.15,2013-02-10 01:29:00,
2013-02-09 20:39:00,31.9,22.5,30.32,ESE,115,6.0,7.0,68,0.00,,,0.00,Wunderground v.1.15,2013-02-10 01:39:00,
2013-02-09 20:49:00,31.8,22.1,30.32,ESE,113,6.0,6.0,67,0.00,,,0.00,Wunderground v.1.15,2013-02-10 01:49:00,
2013-02-09 20:54:00,31.7,22.0,30.32,ESE,120,6.0,7.0,67,0.00,,,0.00,Wunderground v.1.15,2013-02-10 01:54:00,
2013-02-09 21:09:00,31.7,22.3,30.32,ESE,115,6.0,8.0,68,0.00,,,0.00,Wunderground v.1.15,2013-02-10 02:09:00,
2013-02-09 21:19:00,31.5,22.5,30.32,ESE,118,6.0,7.0,69,0.00,,,0.00,Wunderground v.1.15,2013-02-10 02:19:00,
2013-02-09 21:29:00,31.8,22.4,30.31,ESE,111,7.0,9.0,68,0.00,,,0.00,Wunderground v.1.15,2013-02-10 02:29:00,
2013-02-09 21:39:00,31.7,22.7,30.31,ESE,109,7.0,7.0,69,0.00,,,0.00,Wunderground v.1.15,2013-02-10 02:39:00,
2013-02-09 21:49:00,31.4,22.7,30.32,ESE,121,6.0,6.0,70,0.00,,,0.00,Wunderground v.1.15,2013-02-10 02:49:00,
2013-02-09 21:59:00,31.2,22.5,30.32,ESE,121,5.0,5.0,70,0.00,,,0.00,Wunderground v.1.15,2013-02-10 02:59:00,
2013-02-09 22:09:00,31.0,22.0,30.32,ESE,123,5.0,5.0,69,0.00,,,0.00,Wunderground v.1.15,2013-02-10 03:09:00,
2013-02-09 22:19:00,31.1,22.1,30.32,ESE,123,5.0,5.0,69,0.00,,,0.00,Wunderground v.1.15,2013-02-10 03:19:00,
2013-02-09 22:29:00,30.8,22.5,30.31,ESE,121,4.0,4.0,71,0.00,,,0.00,Wunderground v.1.15,2013-02-10 03:29:00,
2013-02-09 22:39:00,30.5,22.2,30.30,ESE,121,4.0,4.0,71,0.00,,,0.00,Wunderground v.1.15,2013-02-10 03:39:00,
2013-02-09 22:49:00,30.2,21.9,30.30,ESE,121,2.0,3.0,71,0.00,,,0.00,Wunderground v.1.15,2013-02-10 03:49:00,
2013-02-09 22:59:00,30.2,21.9,30.30,ESE,121,3.0,3.0,71,0.00,,,0.00,Wunderground v.1.15,2013-02-10 03:59:00,
2013-02-09 23:09:00,29.5,22.6,30.30,ESE,119,2.0,2.0,75,0.00,,,0.00,Wunderground v.1.15,2013-02-10 04:09:00,
2013-02-09 23:19:00,29.4,22.5,30.30,ESE,118,2.0,3.0,75,0.00,,,0.00,Wunderground v.1.15,2013-02-10 04:19:00,
2013-02-09 23:29:00,29.4,22.5,30.29,ESE,117,2.0,2.0,75,0.00,,,0.00,Wunderground v.1.15,2013-02-10 04:29:00,
2013-02-09 23:39:00,29.7,22.4,30.28,ESE,113,3.0,3.0,74,0.00,,,0.00,Wunderground v.1.15,2013-02-10 04:39:00,
2013-02-09 23:49:00,30.1,22.5,30.28,East,99,5.0,5.0,73,0.00,,,0.00,Wunderground v.1.15,2013-02-10 04:49:00,
2013-02-09 23:59:00,29.5,22.6,30.27,East,99,4.0,4.0,75,0.00,,,0.00,Wunderground v.1.15,2013-02-10 04:59:00,